Time,TemperatureF,DewpointF,PressureIn,WindDirection,WindDirectionDegrees,WindSpeedMPH,WindSpeedGustMPH,Humidity,HourlyPrecipIn,Conditions,Clouds,dailyrainin,SoftwareType,DateUTC
2013-10-27 00:00:00,37.0,26.7,30.04,WSW,248,1.0,5.0,66,0.00,,,-99.99,Weather View 32 v60,2013-10-27 05:00:00,
2013-10-27 00:05:00,37.0,26.7,30.04,West,270,1.0,5.0,66,0.00,,,-99.99,Weather View 32 v60,2013-10-27 05:05:00,
2013-10-27 00:10:00,37.0,26.7,30.04,WNW,292,1.0,5.0,66,0.00,,,-99.99,Weather View 32 v60,2013-10-27 05:10:00,
2013-10-27 00:15:00,37.0,26.7,30.04,West,270,1.0,5.0,66,0.00,,,-99.99,Weather View 32 v60,2013-10-27 05:15:00,
2013-10-27 00:20:00,37.0,26.7,30.04,SW,225,1.0,5.0,66,0.00,,,-99.99,Weather View 32 v60,2013-10-27 05:20:00,
2013-10-27 00:25:00,37.0,26.7,30.03,SW,225,1.0,5.0,66,0.00,,,-99.99,Weather View 32 v60,2013-10-27 05:25:00,
2013-10-27 00:30:00,37.0,26.7,30.03,SSW,202,0.0,5.0,66,0.00,,,-99.99,Weather View 32 v60,2013-10-27 05:30:00,
2013-10-27 00:35:00,37.0,26.7,30.03,SW,225,0.0,5.0,66,0.00,,,-99.99,Weather View 32 v60,2013-10-27 05:35:00,
2013-10-27 00:40:00,37.0,26.7,30.02,WSW,248,1.0,5.0,66,0.00,,,-99.99,Weather View 32 v60,2013-10-27 05:40:00,
2013-10-27 00:45:00,37.0,26.7,30.03,SW,225,1.0,5.0,66,0.00,,,-99.99,Weather View 32 v60,2013-10-27 05:45:00,
2013-10-27 00:50:00,37.0,27.1,30.03,West,270,2.0,5.0,67,0.00,,,-99.99,Weather View 32 v60,2013-10-27 05:50:00,
2013-10-27 00:55:00,37.0,27.1,30.02,West,270,1.0,5.0,67,0.00,,,-99.99,Weather View 32 v60,2013-10-27 05:55:00,
2013-10-27 01:00:00,37.0,27.1,30.02,WSW,248,0.0,5.0,67,0.00,,,-99.99,Weather View 32 v60,2013-10-27 06:00:00,
2013-10-27 01:05:00,37.0,27.1,30.02,WSW,248,1.0,5.0,67,0.00,,,-99.99,Weather View 32 v60,2013-10-27 06:05:00,
2013-10-27 01:10:00,37.0,27.1,30.02,SW,225,2.0,5.0,67,0.00,,,-99.99,Weather View 32 v60,2013-10-27 06:10:00,
2013-10-27 01:15:00,36.0,26.1,30.02,SW,225,1.0,5.0,67,0.00,,,-99.99,Weather View 32 v60,2013-10-27 06:15:00,
2013-10-27 01:20:00,36.0,26.1,30.01,SW,225,1.0,5.0,67,0.00,,,-99.99,Weather View 32 v60,2013-10-27 06:20:00,
2013-10-27 01:25:00,36.0,26.1,30.01,SW,225,0.0,5.0,67,0.00,,,-99.99,Weather View 32 v60,2013-10-27 06:25:00,
2013-10-27 01:30:00,36.0,26.1,30.01,West,270,1.0,5.0,67,0.00,,,-99.99,Weather View 32 v60,2013-10-27 06:30:00,
2013-10-27 01:35:00,36.0,26.1,30.01,WSW,248,2.0,5.0,67,0.00,,,-99.99,Weather View 32 v60,2013-10-27 06:35:00,
2013-10-27 01:40:00,36.0,26.1,30.00,SW,225,1.0,5.0,67,0.00,,,-99.99,Weather View 32 v60,2013-10-27 06:40:00,
2013-10-27 01:45:00,36.0,26.1,30.00,SW,225,1.0,5.0,67,0.00,,,-99.99,Weather View 32 v60,2013-10-27 06:45:00,
2013-10-27 01:50:00,35.0,25.1,30.00,SW,225,0.0,5.0,67,0.00,,,-99.99,Weather View 32 v60,2013-10-27 06:50:00,
2013-10-27 01:55:00,35.0,25.1,30.01,SW,225,0.0,5.0,67,0.00,,,-99.99,Weather View 32 v60,2013-10-27 06:55:00,
2013-10-27 02:00:00,35.0,25.1,30.00,SW,225,0.0,3.0,67,0.00,,,-99.99,Weather View 32 v60,2013-10-27 07:00:00,
2013-10-27 02:05:00,35.0,25.1,30.00,WSW,248,1.0,3.0,67,0.00,,,-99.99,Weather View 32 v60,2013-10-27 07:05:00,
2013-10-27 02:10:00,35.0,25.1,30.00,WSW,248,0.0,3.0,67,0.00,,,-99.99,Weather View 32 v60,2013-10-27 07:10:00,
2013-10-27 02:15:00,34.0,24.2,29.99,SW,225,1.0,3.0,67,0.00,,,-99.99,Weather View 32 v60,2013-10-27 07:15:00,
2013-10-27 02:20:00,34.0,24.2,30.00,WSW,248,2.0,3.0,67,0.00,,,-99.99,Weather View 32 v60,2013-10-27 07:20:00,
2013-10-27 02:25:00,34.0,24.2,29.99,SSW,202,1.0,3.0,67,0.00,,,-99.99,Weather View 32 v60,2013-10-27 07:25:00,
2013-10-27 02:30:00,34.0,24.2,29.99,SSW,202,1.0,3.0,67,0.00,,,-99.99,Weather View 32 v60,2013-10-27 07:30:00,
2013-10-27 02:35:00,33.0,23.6,29.99,SW,225,0.0,3.0,68,0.00,,,-99.99,Weather View 32 v60,2013-10-27 07:35:00,
2013-10-27 02:40:00,33.0,23.6,30.00,SSW,202,0.0,5.0,68,0.00,,,-99.99,Weather View 32 v60,2013-10-27 07:40:00,
2013-10-27 02:45:00,33.0,23.9,30.00,WSW,248,1.0,5.0,69,0.00,,,-99.99,Weather View 32 v60,2013-10-27 07:45:00,
2013-10-27 02:50:00,32.0,23.0,29.99,SW,225,0.0,5.0,69,0.00,,,-99.99,Weather View 32 v60,2013-10-27 07:50:00,
2013-10-27 02:55:00,32.0,23.3,29.99,SW,225,1.0,5.0,70,0.00,,,-99.99,Weather View 32 v60,2013-10-27 07:55:00,
2013-10-27 03:00:00,32.0,23.3,29.99,SSW,202,3.0,5.0,70,0.00,,,-99.99,Weather View 32 v60,2013-10-27 08:00:00,
2013-10-27 03:05:00,31.0,22.4,29.99,SW,225,0.0,5.0,70,0.00,,,-99.99,Weather View 32 v60,2013-10-27 08:05:00,
2013-10-27 03:10:00,31.0,22.4,29.99,SW,225,1.0,5.0,70,0.00,,,-99.99,Weather View 32 v60,2013-10-27 08:10:00,
2013-10-27 03:15:00,31.0,22.7,29.98,SW,225,1.0,5.0,71,0.00,,,-99.99,Weather View 32 v60,2013-10-27 08:15:00,
2013-10-27 03:20:00,31.0,22.7,29.98,WSW,248,1.0,5.0,71,0.00,,,-99.99,Weather View 32 v60,2013-10-27 08:20:00,
2013-10-27 03:25:00,31.0,22.7,29.97,SW,225,1.0,5.0,71,0.00,,,-99.99,Weather View 32 v60,2013-10-27 08:25:00,
2013-10-27 03:30:00,30.0,21.7,29.97,WSW,248,2.0,5.0,71,0.00,,,-99.99,Weather View 32 v60,2013-10-27 08:30:00,
2013-10-27 03:35:00,30.0,22.1,29.98,SW,225,1.0,6.0,72,0.00,,,-99.99,Weather View 32 v60,2013-10-27 08:35:00,
2013-10-27 03:40:00,30.0,22.1,29.98,SW,225,2.0,6.0,72,0.00,,,-99.99,Weather View 32 v60,2013-10-27 08:40:00,
2013-10-27 03:45:00,30.0,22.4,29.98,SSW,202,0.0,6.0,73,0.00,,,-99.99,Weather View 32 v60,2013-10-27 08:45:00,
2013-10-27 03:50:00,30.0,22.4,29.98,SW,225,3.0,6.0,73,0.00,,,-99.99,Weather View 32 v60,2013-10-27 08:50:00,
2013-10-27 03:55:00,30.0,22.4,29.98,SW,225,5.0,6.0,73,0.00,,,-99.99,Weather View 32 v60,2013-10-27 08:55:00,
2013-10-27 04:00:00,30.0,22.4,29.97,SW,225,0.0,6.0,73,0.00,,,-99.99,Weather View 32 v60,2013-10-27 09:00:00,
2013-10-27 04:05:00,30.0,22.7,29.98,SSW,202,1.0,6.0,74,0.00,,,-99.99,Weather View 32 v60,2013-10-27 09:05:00,
2013-10-27 04:10:00,30.0,22.7,29.97,SSW,202,1.0,6.0,74,0.00,,,-99.99,Weather View 32 v60,2013-10-27 09:10:00,
2013-10-27 04:15:00,30.0,22.7,29.97,WNW,292,1.0,6.0,74,0.00,,,-99.99,Weather View 32 v60,2013-10-27 09:15:00,
2013-10-27 04:20:00,30.0,22.7,29.97,SW,225,3.0,6.0,74,0.00,,,-99.99,Weather View 32 v60,2013-10-27 09:20:00,
2013-10-27 04:25:00,30.0,22.7,29.96,SW,225,1.0,6.0,74,0.00,,,-99.99,Weather View 32 v60,2013-10-27 09:25:00,
2013-10-27 04:30:00,30.0,23.0,29.96,WSW,248,3.0,6.0,75,0.00,,,-99.99,Weather View 32 v60,2013-10-27 09:30:00,
2013-10-27 04:35:00,30.0,23.0,29.96,WSW,248,1.0,6.0,75,0.00,,,-99.99,Weather View 32 v60,2013-10-27 09:35:00,
2013-10-27 04:40:00,30.0,23.0,29.96,WSW,248,1.0,6.0,75,0.00,,,-99.99,Weather View 32 v60,2013-10-27 09:40:00,
2013-10-27 04:45:00,30.0,23.0,29.96,West,270,2.0,6.0,75,0.00,,,-99.99,Weather View 32 v60,2013-10-27 09:45:00,
2013-10-27 04:50:00,30.0,23.0,29.96,WSW,248,1.0,6.0,75,0.00,,,-99.99,Weather View 32 v60,2013-10-27 09:50:00,
2013-10-27 04:55:00,30.0,23.4,29.96,WSW,248,4.0,6.0,76,0.00,,,-99.99,Weather View 32 v60,2013-10-27 09:55:00,
2013-10-27 05:00:00,30.0,23.4,29.96,SW,225,1.0,6.0,76,0.00,,,-99.99,Weather View 32 v60,2013-10-27 10:00:00,
2013-10-27 05:05:00,30.0,23.4,29.96,WSW,248,2.0,6.0,76,0.00,,,-99.99,Weather View 32 v60,2013-10-27 10:05:00,
2013-10-27 05:10:00,29.0,22.4,29.95,WSW,248,0.0,7.0,76,0.00,,,-99.99,Weather View 32 v60,2013-10-27 10:10:00,
2013-10-27 05:15:00,29.0,22.4,29.95,SSW,202,3.0,7.0,76,0.00,,,-99.99,Weather View 32 v60,2013-10-27 10:15:00,
2013-10-27 05:25:00,29.0,22.4,29.96,SW,225,3.0,7.0,76,0.00,,,-99.99,Weather View 32 v60,2013-10-27 10:25:00,
2013-10-27 05:30:00,29.0,22.7,29.95,SSW,202,3.0,7.0,77,0.00,,,-99.99,Weather View 32 v60,2013-10-27 10:30:00,
2013-10-27 05:35:00,29.0,22.7,29.94,West,270,3.0,7.0,77,0.00,,,-99.99,Weather View 32 v60,2013-10-27 10:35:00,
2013-10-27 05:40:00,29.0,22.7,29.94,SW,225,1.0,7.0,77,0.00,,,-99.99,Weather View 32 v60,2013-10-27 10:40:00,
2013-10-27 05:45:00,29.0,22.7,29.94,West,270,4.0,7.0,77,0.00,,,-99.99,Weather View 32 v60,2013-10-27 10:45:00,
2013-10-27 05:50:00,29.0,22.7,29.94,WSW,248,3.0,7.0,77,0.00,,,-99.99,Weather View 32 v60,2013-10-27 10:50:00,
2013-10-27 05:55:00,29.0,22.7,29.94,SW,225,3.0,7.0,77,0.00,,,-99.99,Weather View 32 v60,2013-10-27 10:55:00,
2013-10-27 06:00:00,29.0,22.7,29.93,WNW,292,2.0,7.0,77,0.00,,,-99.99,Weather View 32 v60,2013-10-27 11:00:00,
2013-10-27 06:05:00,29.0,22.7,29.93,SW,225,2.0,7.0,77,0.00,,,-99.99,Weather View 32 v60,2013-10-27 11:05:00,
2013-10-27 06:10:00,29.0,23.0,29.93,WSW,248,1.0,7.0,78,0.00,,,-99.99,Weather View 32 v60,2013-10-27 11:10:00,
2013-10-27 06:15:00,29.0,23.0,29.92,North,0,1.0,7.0,78,0.00,,,-99.99,Weather View 32 v60,2013-10-27 11:15:00,
2013-10-27 06:20:00,29.0,23.0,29.92,West,270,3.0,8.0,78,0.00,,,-99.99,Weather View 32 v60,2013-10-27 11:20:00,
2013-10-27 06:25:00,29.0,23.0,29.92,SSW,202,1.0,11.0,78,0.00,,,-99.99,Weather View 32 v60,2013-10-27 11:25:00,
2013-10-27 06:30:00,29.0,23.0,29.92,West,270,3.0,11.0,78,0.00,,,-99.99,Weather View 32 v60,2013-10-27 11:30:00,
2013-10-27 06:35:00,29.0,23.3,29.91,SW,225,1.0,11.0,79,0.00,,,-99.99,Weather View 32 v60,2013-10-27 11:35:00,
2013-10-27 06:40:00,29.0,23.3,29.91,SW,225,1.0,11.0,79,0.00,,,-99.99,Weather View 32 v60,2013-10-27 11:40:00,
2013-10-27 06:45:00,29.0,23.3,29.91,WNW,292,3.0,11.0,79,0.00,,,-99.99,Weather View 32 v60,2013-10-27 11:45:00,
2013-10-27 06:55:00,30.0,24.6,29.91,SW,225,3.0,11.0,80,0.00,,,-99.99,Weather View 32 v60,2013-10-27 11:55:00,
2013-10-27 07:00:00,30.0,24.6,29.90,NNE,22,1.0,11.0,80,0.00,,,-99.99,Weather View 32 v60,2013-10-27 12:00:00,
2013-10-27 07:05:00,30.0,24.6,29.90,SW,225,2.0,11.0,80,0.00,,,-99.99,Weather View 32 v60,2013-10-27 12:05:00,
2013-10-27 07:10:00,30.0,24.6,29.90,West,270,1.0,11.0,80,0.00,,,-99.99,Weather View 32 v60,2013-10-27 12:10:00,
2013-10-27 07:15:00,30.0,24.6,29.90,WSW,248,2.0,11.0,80,0.00,,,-99.99,Weather View 32 v60,2013-10-27 12:15:00,
2013-10-27 07:20:00,30.0,24.6,29.90,SW,225,3.0,11.0,80,0.00,,,-99.99,Weather View 32 v60,2013-10-27 12:20:00,
2013-10-27 07:25:00,30.0,24.3,29.90,WNW,292,1.0,11.0,79,0.00,,,-99.99,Weather View 32 v60,2013-10-27 12:25:00,
2013-10-27 07:30:00,30.0,24.3,29.89,SSW,202,3.0,11.0,79,0.00,,,-99.99,Weather View 32 v60,2013-10-27 12:30:00,
2013-10-27 07:35:00,30.0,24.3,29.89,SW,225,5.0,11.0,79,0.00,,,-99.99,Weather View 32 v60,2013-10-27 12:35:00,
2013-10-27 07:40:00,30.0,24.3,29.89,SW,225,2.0,11.0,79,0.00,,,-99.99,Weather View 32 v60,2013-10-27 12:40:00,
2013-10-27 07:45:00,30.0,24.3,29.89,WSW,248,1.0,11.0,79,0.00,,,-99.99,Weather View 32 v60,2013-10-27 12:45:00,
2013-10-27 07:50:00,30.0,24.3,29.89,SW,225,3.0,11.0,79,0.00,,,-99.99,Weather View 32 v60,2013-10-27 12:50:00,
2013-10-27 07:55:00,30.0,24.3,29.88,SSE,158,1.0,11.0,79,0.00,,,-99.99,Weather View 32 v60,2013-10-27 12:55:00,
2013-10-27 08:00:00,30.0,24.3,29.88,WSW,248,5.0,11.0,79,0.00,,,-99.99,Weather View 32 v60,2013-10-27 13:00:00,
2013-10-27 08:05:00,30.0,24.6,29.88,NNW,338,3.0,11.0,80,0.00,,,-99.99,Weather View 32 v60,2013-10-27 13:05:00,
2013-10-27 08:10:00,30.0,24.6,29.88,SSW,202,5.0,11.0,80,0.00,,,-99.99,Weather View 32 v60,2013-10-27 13:10:00,
2013-10-27 08:15:00,30.0,24.6,29.88,SW,225,2.0,11.0,80,0.00,,,-99.99,Weather View 32 v60,2013-10-27 13:15:00,
2013-10-27 08:20:00,31.0,25.6,29.87,SSW,202,8.0,11.0,80,0.00,,,-99.99,Weather View 32 v60,2013-10-27 13:20:00,
2013-10-27 08:30:00,31.0,25.6,29.86,NNW,338,2.0,12.0,80,0.00,,,-99.99,Weather View 32 v60,2013-10-27 13:30:00,
2013-10-27 08:35:00,32.0,26.5,29.87,SW,225,6.0,12.0,80,0.00,,,-99.99,Weather View 32 v60,2013-10-27 13:35:00,
2013-10-27 08:40:00,32.0,26.5,29.87,West,270,3.0,12.0,80,0.00,,,-99.99,Weather View 32 v60,2013-10-27 13:40:00,
2013-10-27 08:45:00,32.0,26.5,29.87,SSE,158,1.0,12.0,80,0.00,,,-99.99,Weather View 32 v60,2013-10-27 13:45:00,
2013-10-27 08:55:00,33.0,27.2,29.87,WSW,248,1.0,12.0,79,0.00,,,-99.99,Weather View 32 v60,2013-10-27 13:55:00,
2013-10-27 09:00:00,33.0,27.2,29.87,SSW,202,3.0,12.0,79,0.00,,,-99.99,Weather View 32 v60,2013-10-27 14:00:00,
2013-10-27 09:05:00,33.0,27.2,29.86,WNW,292,4.0,12.0,79,0.00,,,-99.99,Weather View 32 v60,2013-10-27 14:05:00,
2013-10-27 09:10:00,34.0,27.9,29.87,SW,225,4.0,12.0,78,0.00,,,-99.99,Weather View 32 v60,2013-10-27 14:10:00,
2013-10-27 09:15:00,34.0,27.9,29.86,WNW,292,4.0,12.0,78,0.00,,,-99.99,Weather View 32 v60,2013-10-27 14:15:00,
2013-10-27 09:20:00,34.0,27.9,29.86,SW,225,2.0,12.0,78,0.00,,,-99.99,Weather View 32 v60,2013-10-27 14:20:00,
2013-10-27 09:25:00,34.0,27.9,29.86,SW,225,2.0,12.0,78,0.00,,,-99.99,Weather View 32 v60,2013-10-27 14:25:00,
2013-10-27 09:35:00,35.0,28.5,29.85,SW,225,3.0,11.0,77,0.00,,,-99.99,Weather View 32 v60,2013-10-27 14:35:00,
2013-10-27 09:40:00,35.0,28.5,29.85,WNW,292,6.0,11.0,77,0.00,,,-99.99,Weather View 32 v60,2013-10-27 14:40:00,
2013-10-27 09:45:00,35.0,28.2,29.85,SW,225,3.0,11.0,76,0.00,,,-99.99,Weather View 32 v60,2013-10-27 14:45:00,
2013-10-27 09:50:00,35.0,28.2,29.85,SW,225,3.0,11.0,76,0.00,,,-99.99,Weather View 32 v60,2013-10-27 14:50:00,
2013-10-27 10:00:00,35.0,28.2,29.85,NNW,338,2.0,11.0,76,0.00,,,-99.99,Weather View 32 v60,2013-10-27 15:00:00,
2013-10-27 10:05:00,36.0,29.2,29.85,WSW,248,3.0,11.0,76,0.00,,,-99.99,Weather View 32 v60,2013-10-27 15:05:00,
2013-10-27 10:10:00,36.0,29.2,29.85,SW,225,5.0,11.0,76,0.00,,,-99.99,Weather View 32 v60,2013-10-27 15:10:00,
2013-10-27 10:15:00,37.0,29.8,29.85,SW,225,4.0,11.0,75,0.00,,,-99.99,Weather View 32 v60,2013-10-27 15:15:00,
2013-10-27 10:20:00,38.0,30.4,29.85,WNW,292,3.0,11.0,74,0.00,,,-99.99,Weather View 32 v60,2013-10-27 15:20:00,
2013-10-27 10:25:00,39.0,31.1,29.85,WSW,248,6.0,11.0,73,0.00,,,-99.99,Weather View 32 v60,2013-10-27 15:25:00,
2013-10-27 10:30:00,39.0,30.7,29.85,WSW,248,6.0,11.0,72,0.00,,,-99.99,Weather View 32 v60,2013-10-27 15:30:00,
2013-10-27 10:35:00,40.0,31.0,29.85,NW,315,5.0,11.0,70,0.00,,,-99.99,Weather View 32 v60,2013-10-27 15:35:00,
2013-10-27 10:40:00,41.0,31.6,29.85,WNW,292,5.0,11.0,69,0.00,,,-99.99,Weather View 32 v60,2013-10-27 15:40:00,
2013-10-27 10:45:00,41.0,31.2,29.85,West,270,6.0,11.0,68,0.00,,,-99.99,Weather View 32 v60,2013-10-27 15:45:00,
2013-10-27 10:55:00,43.0,32.4,29.84,SW,225,7.0,13.0,66,0.00,,,-99.99,Weather View 32 v60,2013-10-27 15:55:00,
2013-10-27 11:00:00,43.0,31.6,29.84,SSW,202,6.0,14.0,64,0.00,,,-99.99,Weather View 32 v60,2013-10-27 16:00:00,
2013-10-27 11:05:00,43.0,31.2,29.84,West,270,2.0,14.0,63,0.00,,,-99.99,Weather View 32 v60,2013-10-27 16:05:00,
2013-10-27 11:10:00,43.0,31.2,29.84,West,270,6.0,14.0,63,0.00,,,-99.99,Weather View 32 v60,2013-10-27 16:10:00,
2013-10-27 11:15:00,44.0,32.2,29.84,WSW,248,3.0,14.0,63,0.00,,,-99.99,Weather View 32 v60,2013-10-27 16:15:00,
2013-10-27 11:20:00,44.0,31.4,29.85,North,0,5.0,14.0,61,0.00,,,-99.99,Weather View 32 v60,2013-10-27 16:20:00,
2013-10-27 11:25:00,44.0,31.4,29.85,WNW,292,6.0,14.0,61,0.00,,,-99.99,Weather View 32 v60,2013-10-27 16:25:00,
2013-10-27 11:30:00,45.0,31.5,29.84,NNW,338,8.0,14.0,59,0.00,,,-99.99,Weather View 32 v60,2013-10-27 16:30:00,
2013-10-27 11:35:00,46.0,31.6,29.85,NNW,338,5.0,14.0,57,0.00,,,-99.99,Weather View 32 v60,2013-10-27 16:35:00,
2013-10-27 11:40:00,46.0,31.6,29.85,WNW,292,11.0,14.0,57,0.00,,,-99.99,Weather View 32 v60,2013-10-27 16:40:00,
2013-10-27 11:45:00,46.0,30.7,29.85,NNE,22,4.0,14.0,55,0.00,,,-99.99,Weather View 32 v60,2013-10-27 16:45:00,
2013-10-27 11:50:00,47.0,32.1,29.85,West,270,3.0,14.0,56,0.00,,,-99.99,Weather View 32 v60,2013-10-27 16:50:00,
2013-10-27 11:55:00,47.0,31.2,29.85,NW,315,3.0,14.0,54,0.00,,,-99.99,Weather View 32 v60,2013-10-27 16:55:00,
2013-10-27 12:00:00,47.0,31.2,29.85,West,270,3.0,14.0,54,0.00,,,-99.99,Weather View 32 v60,2013-10-27 17:00:00,
2013-10-27 12:05:00,46.0,29.8,29.85,West,270,5.0,14.0,53,0.00,,,-99.99,Weather View 32 v60,2013-10-27 17:05:00,
2013-10-27 12:10:00,46.0,29.8,29.85,NW,315,3.0,14.0,53,0.00,,,-99.99,Weather View 32 v60,2013-10-27 17:10:00,
2013-10-27 12:15:00,46.0,29.8,29.85,NNW,338,6.0,14.0,53,0.00,,,-99.99,Weather View 32 v60,2013-10-27 17:15:00,
2013-10-27 12:20:00,47.0,30.7,29.85,NW,315,3.0,14.0,53,0.00,,,-99.99,Weather View 32 v60,2013-10-27 17:20:00,
2013-10-27 12:25:00,47.0,30.7,29.85,WSW,248,3.0,14.0,53,0.00,,,-99.99,Weather View 32 v60,2013-10-27 17:25:00,
2013-10-27 12:30:00,47.0,30.7,29.85,NW,315,3.0,14.0,53,0.00,,,-99.99,Weather View 32 v60,2013-10-27 17:30:00,
2013-10-27 12:35:00,47.0,30.3,29.84,NNW,338,5.0,14.0,52,0.00,,,-99.99,Weather View 32 v60,2013-10-27 17:35:00,
2013-10-27 12:40:00,47.0,30.3,29.84,NNW,338,8.0,13.0,52,0.00,,,-99.99,Weather View 32 v60,2013-10-27 17:40:00,
2013-10-27 12:45:00,47.0,30.3,29.84,SSW,202,1.0,13.0,52,0.00,,,-99.99,Weather View 32 v60,2013-10-27 17:45:00,
2013-10-27 12:50:00,48.0,31.2,29.84,North,0,7.0,13.0,52,0.00,,,-99.99,Weather View 32 v60,2013-10-27 17:50:00,
2013-10-27 13:00:00,49.0,32.1,29.83,NNW,338,3.0,13.0,52,0.00,,,-99.99,Weather View 32 v60,2013-10-27 18:00:00,
2013-10-27 13:05:00,49.0,31.6,29.83,NW,315,4.0,13.0,51,0.00,,,-99.99,Weather View 32 v60,2013-10-27 18:05:00,
2013-10-27 13:10:00,49.0,31.1,29.83,North,0,5.0,13.0,50,0.00,,,-99.99,Weather View 32 v60,2013-10-27 18:10:00,
2013-10-27 13:15:00,49.0,31.1,29.83,NNW,338,6.0,13.0,50,0.00,,,-99.99,Weather View 32 v60,2013-10-27 18:15:00,
2013-10-27 13:20:00,50.0,32.1,29.83,West,270,5.0,13.0,50,0.00,,,-99.99,Weather View 32 v60,2013-10-27 18:20:00,
2013-10-27 13:25:00,50.0,31.6,29.83,West,270,3.0,13.0,49,0.00,,,-99.99,Weather View 32 v60,2013-10-27 18:25:00,
2013-10-27 13:30:00,50.0,31.6,29.83,West,270,7.0,13.0,49,0.00,,,-99.99,Weather View 32 v60,2013-10-27 18:30:00,
2013-10-27 13:35:00,50.0,31.6,29.83,NW,315,4.0,13.0,49,0.00,,,-99.99,Weather View 32 v60,2013-10-27 18:35:00,
2013-10-27 13:45:00,50.0,31.0,29.82,SW,225,2.0,14.0,48,0.00,,,-99.99,Weather View 32 v60,2013-10-27 18:45:00,
2013-10-27 13:50:00,50.0,31.0,29.82,North,0,10.0,14.0,48,0.00,,,-99.99,Weather View 32 v60,2013-10-27 18:50:00,
2013-10-27 13:55:00,50.0,31.6,29.83,NNW,338,2.0,14.0,49,0.00,,,-99.99,Weather View 32 v60,2013-10-27 18:55:00,
2013-10-27 14:05:00,50.0,31.0,29.83,NW,315,5.0,14.0,48,0.00,,,-99.99,Weather View 32 v60,2013-10-27 19:05:00,
2013-10-27 14:10:00,50.0,31.0,29.83,NNE,22,7.0,14.0,48,0.00,,,-99.99,Weather View 32 v60,2013-10-27 19:10:00,
2013-10-27 14:15:00,50.0,31.0,29.83,NNE,22,3.0,14.0,48,0.00,,,-99.99,Weather View 32 v60,2013-10-27 19:15:00,
2013-10-27 14:20:00,50.0,31.0,29.83,NNW,338,7.0,14.0,48,0.00,,,-99.99,Weather View 32 v60,2013-10-27 19:20:00,
2013-10-27 14:25:00,51.0,31.4,29.83,NW,315,8.0,14.0,47,0.00,,,-99.99,Weather View 32 v60,2013-10-27 19:25:00,
2013-10-27 14:30:00,51.0,31.4,29.83,North,0,3.0,14.0,47,0.00,,,-99.99,Weather View 32 v60,2013-10-27 19:30:00,
2013-10-27 14:35:00,51.0,31.4,29.84,NNW,338,4.0,14.0,47,0.00,,,-99.99,Weather View 32 v60,2013-10-27 19:35:00,
2013-10-27 14:40:00,51.0,31.4,29.84,NNE,22,5.0,13.0,47,0.00,,,-99.99,Weather View 32 v60,2013-10-27 19:40:00,
2013-10-27 14:45:00,51.0,32.0,29.84,NE,45,4.0,13.0,48,0.00,,,-99.99,Weather View 32 v60,2013-10-27 19:45:00,
2013-10-27 14:50:00,51.0,31.4,29.84,NNE,22,6.0,13.0,47,0.00,,,-99.99,Weather View 32 v60,2013-10-27 19:50:00,
2013-10-27 14:55:00,51.0,31.4,29.84,NE,45,5.0,13.0,47,0.00,,,-99.99,Weather View 32 v60,2013-10-27 19:55:00,
2013-10-27 15:00:00,51.0,32.0,29.84,North,0,4.0,13.0,48,0.00,,,-99.99,Weather View 32 v60,2013-10-27 20:00:00,
2013-10-27 15:05:00,51.0,32.0,29.84,NW,315,3.0,13.0,48,0.00,,,-99.99,Weather View 32 v60,2013-10-27 20:05:00,
2013-10-27 15:10:00,51.0,31.4,29.85,WNW,292,2.0,11.0,47,0.00,,,-99.99,Weather View 32 v60,2013-10-27 20:10:00,
2013-10-27 15:15:00,51.0,31.4,29.85,North,0,8.0,12.0,47,0.00,,,-99.99,Weather View 32 v60,2013-10-27 20:15:00,
2013-10-27 15:20:00,51.0,31.4,29.85,NW,315,3.0,12.0,47,0.00,,,-99.99,Weather View 32 v60,2013-10-27 20:20:00,
2013-10-27 15:25:00,51.0,31.4,29.85,North,0,5.0,12.0,47,0.00,,,-99.99,Weather View 32 v60,2013-10-27 20:25:00,
2013-10-27 15:30:00,52.0,32.4,29.85,NNE,22,4.0,18.0,47,0.00,,,-99.99,Weather View 32 v60,2013-10-27 20:30:00,
2013-10-27 15:35:00,52.0,32.4,29.85,NE,45,3.0,18.0,47,0.00,,,-99.99,Weather View 32 v60,2013-10-27 20:35:00,
2013-10-27 15:40:00,52.0,31.8,29.86,NNE,22,6.0,18.0,46,0.00,,,-99.99,Weather View 32 v60,2013-10-27 20:40:00,
2013-10-27 15:45:00,53.0,32.7,29.86,NE,45,3.0,18.0,46,0.00,,,-99.99,Weather View 32 v60,2013-10-27 20:45:00,
2013-10-27 15:50:00,53.0,32.2,29.86,North,0,6.0,18.0,45,0.00,,,-99.99,Weather View 32 v60,2013-10-27 20:50:00,
2013-10-27 15:55:00,53.0,32.7,29.86,NE,45,7.0,18.0,46,0.00,,,-99.99,Weather View 32 v60,2013-10-27 20:55:00,
2013-10-27 16:00:00,53.0,32.7,29.87,ESE,112,2.0,18.0,46,0.00,,,-99.99,Weather View 32 v60,2013-10-27 21:00:00,
2013-10-27 16:05:00,53.0,32.7,29.87,North,0,3.0,18.0,46,0.00,,,-99.99,Weather View 32 v60,2013-10-27 21:05:00,
2013-10-27 16:10:00,52.0,31.8,29.87,NE,45,3.0,18.0,46,0.00,,,-99.99,Weather View 32 v60,2013-10-27 21:10:00,
2013-10-27 16:15:00,52.0,31.8,29.87,NNE,22,5.0,18.0,46,0.00,,,-99.99,Weather View 32 v60,2013-10-27 21:15:00,
2013-10-27 16:20:00,52.0,32.4,29.88,NNE,22,5.0,18.0,47,0.00,,,-99.99,Weather View 32 v60,2013-10-27 21:20:00,
2013-10-27 16:25:00,52.0,31.8,29.88,NNW,338,5.0,18.0,46,0.00,,,-99.99,Weather View 32 v60,2013-10-27 21:25:00,
2013-10-27 16:30:00,52.0,31.8,29.88,NE,45,6.0,10.0,46,0.00,,,-99.99,Weather View 32 v60,2013-10-27 21:30:00,
2013-10-27 16:35:00,52.0,31.8,29.89,NNE,22,4.0,9.0,46,0.00,,,-99.99,Weather View 32 v60,2013-10-27 21:35:00,
2013-10-27 16:45:00,52.0,31.8,29.90,North,0,3.0,9.0,46,0.00,,,-99.99,Weather View 32 v60,2013-10-27 21:45:00,
2013-10-27 16:50:00,51.0,30.9,29.90,NE,45,2.0,9.0,46,0.00,,,-99.99,Weather View 32 v60,2013-10-27 21:50:00,
2013-10-27 16:55:00,51.0,30.9,29.90,ENE,68,3.0,9.0,46,0.00,,,-99.99,Weather View 32 v60,2013-10-27 21:55:00,
2013-10-27 17:00:00,51.0,31.4,29.90,NNE,22,3.0,10.0,47,0.00,,,-99.99,Weather View 32 v60,2013-10-27 22:00:00,
2013-10-27 17:05:00,51.0,31.4,29.90,North,0,5.0,10.0,47,0.00,,,-99.99,Weather View 32 v60,2013-10-27 22:05:00,
2013-10-27 17:10:00,50.0,30.5,29.91,East,90,3.0,11.0,47,0.00,,,-99.99,Weather View 32 v60,2013-10-27 22:10:00,
2013-10-27 17:15:00,50.0,30.5,29.91,East,90,11.0,12.0,47,0.00,,,-99.99,Weather View 32 v60,2013-10-27 22:15:00,
2013-10-27 17:20:00,50.0,30.5,29.92,NE,45,4.0,12.0,47,0.00,,,-99.99,Weather View 32 v60,2013-10-27 22:20:00,
2013-10-27 17:25:00,50.0,30.5,29.92,NE,45,3.0,12.0,47,0.00,,,-99.99,Weather View 32 v60,2013-10-27 22:25:00,
2013-10-27 17:35:00,50.0,30.5,29.92,NNE,22,2.0,12.0,47,0.00,,,-99.99,Weather View 32 v60,2013-10-27 22:35:00,
2013-10-27 17:40:00,50.0,30.5,29.93,NNE,22,4.0,12.0,47,0.00,,,-99.99,Weather View 32 v60,2013-10-27 22:40:00,
2013-10-27 17:45:00,49.0,30.1,29.93,East,90,5.0,13.0,48,0.00,,,-99.99,Weather View 32 v60,2013-10-27 22:45:00,
2013-10-27 17:50:00,49.0,30.1,29.94,NE,45,4.0,13.0,48,0.00,,,-99.99,Weather View 32 v60,2013-10-27 22:50:00,
2013-10-27 17:55:00,49.0,30.1,29.94,NW,315,4.0,13.0,48,0.00,,,-99.99,Weather View 32 v60,2013-10-27 22:55:00,
2013-10-27 18:00:00,49.0,30.1,29.94,NE,45,1.0,13.0,48,0.00,,,-99.99,Weather View 32 v60,2013-10-27 23:00:00,
2013-10-27 18:05:00,49.0,30.1,29.95,NNE,22,12.0,13.0,48,0.00,,,-99.99,Weather View 32 v60,2013-10-27 23:05:00,
2013-10-27 18:10:00,48.0,29.2,29.95,North,0,5.0,14.0,48,0.00,,,-99.99,Weather View 32 v60,2013-10-27 23:10:00,
2013-10-27 18:15:00,48.0,29.2,29.96,NNE,22,6.0,14.0,48,0.00,,,-99.99,Weather View 32 v60,2013-10-27 23:15:00,
2013-10-27 18:20:00,48.0,29.7,29.96,ENE,68,3.0,14.0,49,0.00,,,-99.99,Weather View 32 v60,2013-10-27 23:20:00,
2013-10-27 18:25:00,48.0,29.7,29.97,East,90,13.0,14.0,49,0.00,,,-99.99,Weather View 32 v60,2013-10-27 23:25:00,
2013-10-27 18:30:00,48.0,29.7,29.97,NE,45,3.0,14.0,49,0.00,,,-99.99,Weather View 32 v60,2013-10-27 23:30:00,
2013-10-27 18:35:00,48.0,29.7,29.98,NE,45,3.0,14.0,49,0.00,,,-99.99,Weather View 32 v60,2013-10-27 23:35:00,
2013-10-27 18:40:00,47.0,28.8,29.98,NNE,22,5.0,14.0,49,0.00,,,-99.99,Weather View 32 v60,2013-10-27 23:40:00,
2013-10-27 18:45:00,47.0,28.8,29.99,NE,45,10.0,14.0,49,0.00,,,-99.99,Weather View 32 v60,2013-10-27 23:45:00,
2013-10-27 18:50:00,47.0,28.8,29.99,NE,45,5.0,14.0,49,0.00,,,-99.99,Weather View 32 v60,2013-10-27 23:50:00,
2013-10-27 18:55:00,47.0,28.8,30.00,ENE,68,4.0,14.0,49,0.00,,,-99.99,Weather View 32 v60,2013-10-27 23:55:00,
2013-10-27 19:05:00,46.0,27.9,30.00,East,90,6.0,16.0,49,0.00,,,-99.99,Weather View 32 v60,2013-10-28 00:05:00,
2013-10-27 19:10:00,46.0,28.4,30.01,NE,45,5.0,16.0,50,0.00,,,-99.99,Weather View 32 v60,2013-10-28 00:10:00,
2013-10-27 19:15:00,46.0,28.4,30.01,NNE,22,11.0,16.0,50,0.00,,,-99.99,Weather View 32 v60,2013-10-28 00:15:00,
2013-10-27 19:20:00,45.0,27.5,30.02,NNE,22,12.0,18.0,50,0.00,,,-99.99,Weather View 32 v60,2013-10-28 00:20:00,
2013-10-27 19:25:00,45.0,27.9,30.02,NNE,22,14.0,18.0,51,0.00,,,-99.99,Weather View 32 v60,2013-10-28 00:25:00,
2013-10-27 19:30:00,45.0,27.9,30.03,NE,45,6.0,18.0,51,0.00,,,-99.99,Weather View 32 v60,2013-10-28 00:30:00,
2013-10-27 19:35:00,44.0,27.5,30.03,ENE,68,5.0,18.0,52,0.00,,,-99.99,Weather View 32 v60,2013-10-28 00:35:00,
2013-10-27 19:40:00,44.0,27.5,30.04,ENE,68,6.0,18.0,52,0.00,,,-99.99,Weather View 32 v60,2013-10-28 00:40:00,
2013-10-27 19:45:00,44.0,27.5,30.04,NE,45,5.0,18.0,52,0.00,,,-99.99,Weather View 32 v60,2013-10-28 00:45:00,
2013-10-27 19:50:00,43.0,27.0,30.05,ENE,68,6.0,18.0,53,0.00,,,-99.99,Weather View 32 v60,2013-10-28 00:50:00,
2013-10-27 19:55:00,43.0,27.0,30.06,East,90,6.0,18.0,53,0.00,,,-99.99,Weather View 32 v60,2013-10-28 00:55:00,
2013-10-27 20:00:00,43.0,27.0,30.06,ENE,68,6.0,18.0,53,0.00,,,-99.99,Weather View 32 v60,2013-10-28 01:00:00,
2013-10-27 20:05:00,43.0,27.0,30.06,ENE,68,8.0,18.0,53,0.00,,,-99.99,Weather View 32 v60,2013-10-28 01:05:00,
2013-10-27 20:10:00,43.0,27.0,30.07,NE,45,3.0,18.0,53,0.00,,,-99.99,Weather View 32 v60,2013-10-28 01:10:00,
2013-10-27 20:15:00,42.0,26.1,30.07,North,0,4.0,18.0,53,0.00,,,-99.99,Weather View 32 v60,2013-10-28 01:15:00,
2013-10-27 20:20:00,42.0,26.1,30.08,NE,45,3.0,18.0,53,0.00,,,-99.99,Weather View 32 v60,2013-10-28 01:20:00,
2013-10-27 20:25:00,42.0,26.1,30.08,NNW,338,4.0,18.0,53,0.00,,,-99.99,Weather View 32 v60,2013-10-28 01:25:00,
2013-10-27 20:30:00,42.0,26.1,30.08,ESE,112,9.0,18.0,53,0.00,,,-99.99,Weather View 32 v60,2013-10-28 01:30:00,
2013-10-27 20:35:00,42.0,26.1,30.09,NNW,338,1.0,18.0,53,0.00,,,-99.99,Weather View 32 v60,2013-10-28 01:35:00,
2013-10-27 20:40:00,42.0,26.5,30.09,ENE,68,9.0,18.0,54,0.00,,,-99.99,Weather View 32 v60,2013-10-28 01:40:00,
2013-10-27 20:45:00,42.0,26.5,30.10,NE,45,5.0,18.0,54,0.00,,,-99.99,Weather View 32 v60,2013-10-28 01:45:00,
2013-10-27 20:50:00,42.0,26.5,30.10,East,90,10.0,18.0,54,0.00,,,-99.99,Weather View 32 v60,2013-10-28 01:50:00,
2013-10-27 20:55:00,42.0,26.5,30.10,ENE,68,3.0,18.0,54,0.00,,,-99.99,Weather View 32 v60,2013-10-28 01:55:00,
2013-10-27 21:00:00,42.0,26.5,30.10,NNE,22,6.0,18.0,54,0.00,,,-99.99,Weather View 32 v60,2013-10-28 02:00:00,
2013-10-27 21:05:00,42.0,26.5,30.11,NNE,22,3.0,18.0,54,0.00,,,-99.99,Weather View 32 v60,2013-10-28 02:05:00,
2013-10-27 21:10:00,42.0,26.5,30.11,NE,45,8.0,16.0,54,0.00,,,-99.99,Weather View 32 v60,2013-10-28 02:10:00,
2013-10-27 21:15:00,42.0,26.5,30.11,North,0,5.0,16.0,54,0.00,,,-99.99,Weather View 32 v60,2013-10-28 02:15:00,
2013-10-27 21:20:00,42.0,26.5,30.12,NNE,22,6.0,16.0,54,0.00,,,-99.99,Weather View 32 v60,2013-10-28 02:20:00,
2013-10-27 21:25:00,41.0,25.6,30.13,NE,45,2.0,16.0,54,0.00,,,-99.99,Weather View 32 v60,2013-10-28 02:25:00,
2013-10-27 21:30:00,41.0,25.6,30.13,NE,45,1.0,16.0,54,0.00,,,-99.99,Weather View 32 v60,2013-10-28 02:30:00,
2013-10-27 21:35:00,41.0,25.6,30.13,NE,45,3.0,16.0,54,0.00,,,-99.99,Weather View 32 v60,2013-10-28 02:35:00,
2013-10-27 21:40:00,40.0,25.1,30.13,NE,45,5.0,14.0,55,0.00,,,-99.99,Weather View 32 v60,2013-10-28 02:40:00,
2013-10-27 21:45:00,40.0,25.1,30.14,ESE,112,2.0,14.0,55,0.00,,,-99.99,Weather View 32 v60,2013-10-28 02:45:00,
2013-10-27 21:50:00,40.0,25.5,30.14,East,90,3.0,14.0,56,0.00,,,-99.99,Weather View 32 v60,2013-10-28 02:50:00,
2013-10-27 21:55:00,39.0,24.6,30.14,NE,45,3.0,14.0,56,0.00,,,-99.99,Weather View 32 v60,2013-10-28 02:55:00,
2013-10-27 22:00:00,39.0,24.6,30.15,NE,45,3.0,14.0,56,0.00,,,-99.99,Weather View 32 v60,2013-10-28 03:00:00,
2013-10-27 22:10:00,39.0,25.5,30.15,North,0,1.0,14.0,58,0.00,,,-99.99,Weather View 32 v60,2013-10-28 03:10:00,
2013-10-27 22:15:00,38.0,24.5,30.16,East,90,2.0,14.0,58,0.00,,,-99.99,Weather View 32 v60,2013-10-28 03:15:00,
2013-10-27 22:20:00,38.0,24.5,30.16,East,90,2.0,12.0,58,0.00,,,-99.99,Weather View 32 v60,2013-10-28 03:20:00,
2013-10-27 22:25:00,38.0,24.9,30.17,ENE,68,5.0,12.0,59,0.00,,,-99.99,Weather View 32 v60,2013-10-28 03:25:00,
2013-10-27 22:30:00,38.0,24.9,30.17,East,90,1.0,10.0,59,0.00,,,-99.99,Weather View 32 v60,2013-10-28 03:30:00,
2013-10-27 22:35:00,37.0,24.0,30.17,East,90,2.0,10.0,59,0.00,,,-99.99,Weather View 32 v60,2013-10-28 03:35:00,
2013-10-27 22:40:00,37.0,24.4,30.17,ENE,68,1.0,10.0,60,0.00,,,-99.99,Weather View 32 v60,2013-10-28 03:40:00,
2013-10-27 22:45:00,37.0,24.4,30.17,NE,45,1.0,10.0,60,0.00,,,-99.99,Weather View 32 v60,2013-10-28 03:45:00,
2013-10-27 22:50:00,37.0,24.8,30.18,NE,45,3.0,10.0,61,0.00,,,-99.99,Weather View 32 v60,2013-10-28 03:50:00,
2013-10-27 22:55:00,36.0,23.8,30.18,NE,45,2.0,10.0,61,0.00,,,-99.99,Weather View 32 v60,2013-10-28 03:55:00,
2013-10-27 23:00:00,36.0,24.2,30.18,NE,45,3.0,10.0,62,0.00,,,-99.99,Weather View 32 v60,2013-10-28 04:00:00,
2013-10-27 23:05:00,36.0,24.2,30.19,ENE,68,3.0,10.0,62,0.00,,,-99.99,Weather View 32 v60,2013-10-28 04:05:00,
2013-10-27 23:10:00,36.0,24.6,30.19,NNE,22,2.0,10.0,63,0.00,,,-99.99,Weather View 32 v60,2013-10-28 04:10:00,
2013-10-27 23:15:00,36.0,25.0,30.19,East,90,5.0,10.0,64,0.00,,,-99.99,Weather View 32 v60,2013-10-28 04:15:00,
2013-10-27 23:20:00,36.0,25.0,30.20,East,90,5.0,11.0,64,0.00,,,-99.99,Weather View 32 v60,2013-10-28 04:20:00,
2013-10-27 23:25:00,36.0,25.4,30.20,East,90,2.0,11.0,65,0.00,,,-99.99,Weather View 32 v60,2013-10-28 04:25:00,
2013-10-27 23:30:00,36.0,25.4,30.20,East,90,3.0,11.0,65,0.00,,,-99.99,Weather View 32 v60,2013-10-28 04:30:00,
2013-10-27 23:35:00,36.0,25.4,30.20,NE,45,3.0,11.0,65,0.00,,,-99.99,Weather View 32 v60,2013-10-28 04:35:00,
2013-10-27 23:40:00,36.0,25.7,30.21,ENE,68,3.0,11.0,66,0.00,,,-99.99,Weather View 32 v60,2013-10-28 04:40:00,
2013-10-27 23:45:00,36.0,25.7,30.21,ENE,68,6.0,11.0,66,0.00,,,-99.99,Weather View 32 v60,2013-10-28 04:45:00,
2013-10-27 23:50:00,36.0,25.7,30.21,NE,45,4.0,11.0,66,0.00,,,-99.99,Weather View 32 v60,2013-10-28 04:50:00,
2013-10-27 23:55:00,36.0,26.1,30.22,ENE,68,3.0,11.0,67,0.00,,,-99.99,Weather View 32 v60,2013-10-28 04:55:00,